Wind_Speed
21 21 16 18 17 15 13 12 15 9 14 25 17 16 11 14 11 9 4 2 1 3 5 7 7 4 4 5 7 9 10 10 12 12 14 16 18 19 20 20 20 20 19 19
25 21 17 15 17 19 13 16 13 13 18 14 20 20 13 9 16 19 10 6 3 2 5 5 5 8 9 8 9 10 11 11 13 14 15 16 19 21 24 25 24 23 22 23
19 19 21 19 20 21 22 20 16 13 17 22 17 33 21 13 14 21 18 13 7 5 2 5 7 7 7 7 8 10 12 14 15 15 16 17 19 21 23 25 26 26 26 26
22 20 23 23 21 20 19 21 20 19 20 16 20 13 25 14 25 24 33 17 11 7 5 4 7 8 9 9 9 10 12 14 15 16 19 18 19 21 23 26 27 27 28 27
21 23 24 25 24 24 22 15 19 20 22 19 19 22 30 21 25 25 16 24 14 10 9 8 9 12 13 13 12 12 13 15 18 20 20 20 21 24 25 28 29 28 28 29
23 21 22 22 20 22 18 17 19 21 20 22 22 20 28 31 16 18 25 12 12 16 16 14 14 13 16 16 16 16 17 18 20 21 22 24 24 26 27 28 29 29 29 30
26 18 23 25 22 19 19 17 17 17 17 17 16 22 21 24 18 11 21 26 25 25 24 21 22 20 20 22 21 23 22 21 22 23 23 25 25 26 28 30 31 32 32 33
29 25 25 24 22 20 25 19 16 11 7 11 14 18 12 20 17 25 9 16 28 21 21 18 21 22 20 26 29 28 28 26 25 25 25 27 29 29 30 31 34 34 35 36
27 22 25 22 23 27 24 25 18 16 14 13 15 15 15 20 18 24 35 36 33 26 25 21 27 30 25 24 30 29 28 27 27 26 27 27 29 31 34 35 35 36 37 37
21 18 23 26 25 27 21 11 20 20 19 17 14 18 20 22 24 28 22 24 19 23 27 21 24 29 21 23 28 26 26 26 29 29 29 29 30 32 33 35 35 36 37 37
23 16 19 23 29 26 22 23 21 15 15 11 11 24 22 24 26 23 21 24 22 19 23 20 21 27 19 19 22 25 28 29 32 32 33 33 34 36 37 35 35 36 36 38
32 27 25 30 25 23 22 26 20 20 22 22 19 13 17 22 25 24 29 30 25 20 23 24 24 28 23 23 26 26 29 31 33 34 35 35 36 38 39 38 37 37 37 38
34 32 30 26 26 28 30 27 23 19 17 21 19 21 32 30 29 28 32 32 34 36 26 23 25 28 27 26 28 28 30 32 33 36 36 37 38 38 38 37 37 38 39 40
31 33 34 28 26 24 27 25 27 27 29 24 25 24 25 21 27 36 40 31 29 32 39 38 31 35 32 29 27 28 29 32 34 35 37 38 37 37 36 38 40 40 41 44
42 36 31 31 32 28 29 25 28 28 35 31 24 38 31 40 26 32 44 30 28 37 44 42 37 34 36 30 28 29 30 33 36 37 40 37 37 36 39 40 40 42 44 47
42 40 36 28 25 31 28 28 32 27 25 24 31 27 34 33 42 36 45 32 41 42 36 35 38 33 35 33 29 30 30 33 38 39 39 40 39 38 41 42 43 46 48 50
49 46 36 29 28 26 29 27 28 29 29 32 29 28 36 44 44 45 49 43 40 39 34 34 33 35 37 37 32 32 33 36 37 40 40 40 40 41 44 45 46 50 51 53
39 42 44 35 22 29 26 21 24 32 28 25 24 34 40 48 50 49 51 46 45 30 26 24 27 28 34 32 32 31 33 34 36 38 40 41 42 43 44 48 51 52 52 52
38 32 35 35 32 26 24 27 34 31 33 31 37 45 45 57 45 44 47 54 41 26 25 24 24 25 29 28 30 29 30 33 35 38 40 41 44 45 47 50 52 53 52 54
32 24 28 18 29 30 26 32 41 48 55 35 35 36 43 57 37 50 43 37 33 31 28 28 29 29 29 30 32 31 31 33 36 40 41 43 46 48 51 53 55 53 52 52
34 34 40 39 39 35 29 43 43 45 41 46 37 40 45 43 40 34 40 39 33 32 33 31 30 32 32 33 33 31 33 36 39 41 44 47 49 51 53 53 53 52 48 46
54 48 51 45 38 36 36 42 43 41 27 15 35 41 52 43 37 40 40 43 44 33 32 33 35 35 36 36 36 34 36 38 41 43 47 50 52 53 54 53 52 51 47 45
40 41 47 29 37 48 49 54 55 39 34 42 43 45 36 41 47 50 40 39 49 47 37 39 38 39 38 38 40 38 38 38 41 44 49 51 51 52 52 53 52 49 44 43
49 52 50 47 52 47 15 50 54 53 50 50 49 49 44 43 46 47 44 40 46 45 41 38 41 40 42 46 45 39 41 36 40 39 44 53 51 52 54 54 56 48 43 43
36 48 42 44 50 36 48 37 46 51 50 48 50 49 53 51 51 50 46 44 43 41 40 41 41 42 42 64 40 41 24 42 40 44 49 48 52 54 58 53 48 39 46 43
24 33 12 32 39 52 44 38 49 48 45 49 53 53 55 56 55 51 48 45 43 39 38 40 43 41 37 37 36 60 53 46 54 52 57 56 59 59 58 49 41 48 46 42
Wind_Direction
190 200 201 186 191 173 206 211 231 215 271 296 307 284 301 302 259 276 295 163 115 344 354 355 351 357 14 16 13 6 345 335 331 332 337 339 340 341 343 343 344 343 340 339
195 193 179 193 201 191 192 230 227 225 249 269 270 298 271 302 292 283 268 252 267 344 342 345 346 354 7 12 5 353 346 340 335 335 335 338 338 338 338 338 341 344 338 340
201 190 175 194 207 207 204 213 219 219 227 244 256 272 259 215 286 303 296 275 256 275 316 326 337 342 338 338 339 337 339 338 337 333 331 333 338 335 332 331 334 336 335 335
203 193 202 204 208 219 211 231 195 215 243 253 284 271 296 232 295 284 303 266 264 273 278 285 299 302 303 302 308 318 323 325 325 329 327 326 326 329 332 332 331 329 329 330
202 196 222 213 216 218 223 220 212 219 232 246 248 269 275 237 276 307 284 293 256 260 268 264 277 279 281 287 292 300 310 316 318 321 323 324 322 324 326 328 328 327 325 324
196 220 212 222 214 214 181 213 220 225 239 242 248 239 240 280 257 276 276 236 276 273 258 265 272 279 281 284 290 296 302 306 307 313 318 321 323 320 318 318 320 321 323 321
201 188 212 206 208 201 199 211 213 232 240 247 239 247 254 282 266 285 274 271 305 285 263 259 267 270 277 286 289 295 295 301 302 303 309 311 312 316 314 312 314 317 319 320
205 201 213 208 202 204 213 202 209 216 242 264 248 244 258 256 278 282 302 296 284 280 271 275 277 281 281 289 290 293 296 295 299 298 301 306 310 312 313 310 311 313 313 314
210 202 227 203 200 214 223 202 209 226 261 250 241 277 258 269 263 261 260 258 261 268 272 281 285 288 292 291 290 295 295 295 295 297 297 301 307 312 313 311 309 310 310 312
215 201 220 206 215 208 213 240 220 210 238 238 239 259 268 262 271 286 275 256 254 271 277 288 287 284 292 286 289 293 295 296 298 301 300 302 303 308 311 311 310 308 310 313
178 215 228 219 227 209 219 216 221 216 223 231 251 251 241 249 258 259 271 278 249 240 270 278 285 287 295 291 290 292 296 297 300 303 305 307 308 310 312 313 311 308 311 313
191 214 212 232 225 217 217 230 220 211 221 225 225 245 258 263 270 280 295 296 291 258 263 277 280 283 290 290 288 290 293 296 299 302 304 305 309 314 315 314 311 310 312 313
203 205 207 203 224 227 219 222 234 243 235 226 240 249 255 261 273 275 281 287 293 288 271 272 282 283 288 282 285 288 290 294 298 300 304 311 314 313 314 314 312 313 315 315
213 220 213 213 214 228 238 232 224 230 245 248 241 249 276 273 271 275 274 269 286 286 284 278 279 286 287 289 290 291 292 295 297 300 303 307 309 313 314 314 316 315 318 318
211 216 213 226 208 221 238 241 240 246 231 231 243 245 239 266 268 266 277 282 287 294 294 290 288 286 289 291 289 289 290 293 296 300 299 305 311 313 315 314 314 317 317 313
214 216 216 219 224 229 232 228 250 254 254 241 241 252 278 277 272 262 268 275 287 292 283 280 287 288 288 291 291 287 289 290 292 296 300 301 308 311 312 312 318 316 313 312
226 231 230 231 228 230 230 235 234 247 246 239 232 242 249 267 270 271 280 283 286 288 280 279 281 284 285 289 290 287 286 287 290 294 299 304 308 309 309 315 315 312 313 315
224 233 240 230 222 230 232 227 240 241 246 246 269 265 246 243 248 259 273 275 283 290 286 286 287 281 280 284 284 280 279 285 289 292 297 302 305 306 310 311 310 311 312 314
232 207 226 218 215 232 221 233 234 228 227 239 239 239 249 257 252 273 269 276 285 291 294 290 288 285 285 285 281 278 280 282 288 292 296 302 302 305 306 305 306 306 309 310
229 256 225 185 216 225 223 248 249 234 241 217 235 243 251 257 257 265 275 285 288 290 292 290 291 285 284 281 283 283 284 287 289 292 297 298 302 303 302 302 302 305 309 311
233 241 253 262 252 229 227 249 249 266 246 227 225 229 240 247 260 278 299 292 285 289 290 291 290 287 287 284 287 286 288 292 291 296 299 299 298 298 297 299 303 305 309 308
239 241 248 259 249 251 236 253 250 243 247 251 232 243 247 270 285 289 295 293 291 290 291 288 287 288 289 291 291 291 291 290 293 294 293 295 298 300 300 302 304 303 308 307
251 249 244 247 231 223 235 226 242 256 258 263 263 263 265 264 277 285 282 284 285 289 291 290 290 289 290 289 291 290 286 286 289 292 294 297 301 302 303 305 305 306 305 302
233 233 237 239 242 238 233 212 233 245 253 261 266 267 266 269 273 279 281 279 275 284 285 286 287 288 287 284 284 281 272 277 285 294 295 300 302 302 306 308 304 302 300 297
237 230 229 236 237 237 231 238 242 245 249 256 258 261 265 271 279 280 280 272 276 281 281 283 285 284 291 286 281 284 234 300 295 301 299 300 299 295 300 305 296 313 297 296
228 231 204 226 227 246 272 253 244 249 258 261 263 268 272 275 277 278 277 279 280 279 278 279 282 287 287 279 280 305 264 296 298 299 300 297 300 298 300 299 284 287 293 296
Height
5908 5911 5913 5918 5923 5930 5936 5938 5930 5932 5928 5929 5927 5930 5929 5926 5927 5927 5927 5927 5927 5928 5928 5928 5929 5928 5927 5926 5925 5925 5924 5924 5923 5922 5922 5921 5920 5918 5917 5915 5914 5912 5910 5908
5905 5908 5912 5919 5923 5927 5934 5937 5937 5936 5933 5934 5925 5923 5923 5924 5926 5926 5925 5926 5926 5926 5927 5928 5927 5927 5926 5925 5925 5925 5924 5923 5922 5922 5920 5919 5917 5915 5913 5911 5910 5909 5907 5904
5903 5908 5909 5917 5921 5924 5928 5931 5936 5936 5934 5932 5933 5923 5923 5923 5925 5926 5925 5924 5924 5925 5926 5926 5926 5925 5925 5925 5925 5925 5924 5923 5922 5921 5919 5917 5916 5913 5911 5909 5907 5905 5902 5900
5901 5903 5907 5912 5917 5919 5923 5925 5929 5934 5931 5931 5927 5927 5921 5919 5922 5925 5924 5924 5922 5923 5923 5923 5924 5925 5925 5925 5925 5924 5923 5922 5921 5919 5918 5916 5914 5912 5910 5907 5904 5901 5899 5896
5898 5900 5905 5906 5912 5916 5918 5922 5924 5928 5929 5929 5929 5924 5918 5918 5918 5922 5922 5923 5921 5920 5921 5921 5922 5922 5923 5923 5923 5922 5921 5920 5918 5917 5916 5913 5911 5909 5906 5903 5900 5898 5896 5893
5892 5897 5900 5903 5907 5910 5914 5917 5922 5923 5923 5922 5925 5925 5921 5914 5915 5918 5916 5916 5917 5917 5918 5918 5919 5920 5920 5920 5920 5919 5918 5917 5916 5914 5912 5909 5907 5905 5903 5901 5898 5895 5892 5890
5888 5893 5899 5900 5904 5908 5911 5913 5917 5919 5918 5918 5921 5921 5918 5916 5914 5912 5909 5909 5912 5914 5914 5915 5915 5916 5916 5916 5916 5916 5914 5913 5912 5910 5908 5906 5904 5901 5898 5896 5893 5889 5886 5883
5884 5890 5893 5895 5900 5906 5907 5909 5913 5914 5917 5917 5916 5914 5916 5916 5912 5904 5903 5906 5910 5913 5912 5912 5911 5911 5913 5912 5911 5911 5909 5908 5907 5905 5903 5901 5897 5896 5893 5890 5887 5884 5881 5877
5883 5888 5893 5893 5898 5904 5901 5902 5911 5914 5915 5916 5915 5912 5911 5911 5910 5911 5909 5912 5909 5906 5908 5907 5905 5904 5907 5906 5905 5906 5903 5902 5901 5900 5898 5896 5894 5890 5886 5884 5881 5877 5874 5871
5882 5887 5889 5892 5893 5897 5898 5901 5903 5906 5910 5910 5913 5911 5907 5903 5901 5902 5905 5905 5906 5902 5900 5902 5899 5897 5902 5901 5900 5899 5897 5896 5893 5893 5891 5890 5888 5885 5881 5878 5874 5871 5867 5863
5879 5886 5889 5888 5885 5891 5896 5897 5900 5904 5906 5908 5910 5904 5901 5899 5899 5898 5898 5898 5900 5901 5897 5899 5897 5893 5895 5895 5895 5893 5891 5889 5886 5885 5883 5881 5879 5877 5875 5871 5867 5863 5859 5855
5871 5879 5882 5883 5886 5888 5892 5893 5895 5897 5901 5900 5901 5903 5896 5893 5893 5892 5891 5894 5895 5896 5894 5893 5893 5889 5890 5889 5887 5887 5885 5883 5880 5878 5876 5874 5872 5869 5866 5862 5859 5854 5850 5846
5865 5869 5874 5879 5883 5883 5884 5888 5890 5892 5895 5896 5899 5901 5892 5892 5891 5889 5888 5887 5886 5886 5889 5889 5887 5885 5884 5883 5881 5881 5878 5876 5873 5871 5868 5866 5864 5863 5859 5855 5851 5846 5842 5838
5861 5864 5865 5871 5877 5879 5878 5880 5884 5889 5891 5892 5892 5896 5884 5886 5884 5881 5880 5884 5882 5880 5879 5881 5881 5877 5876 5875 5874 5872 5871 5868 5866 5864 5862 5860 5858 5854 5850 5846 5841 5838 5833 5829
5851 5853 5859 5864 5867 5872 5875 5875 5877 5878 5882 5883 5888 5880 5879 5874 5871 5876 5874 5876 5879 5878 5871 5869 5871 5870 5866 5868 5868 5865 5863 5861 5857 5857 5854 5852 5849 5845 5841 5838 5834 5829 5825 5820
5840 5845 5849 5854 5861 5864 5867 5871 5872 5872 5873 5877 5880 5881 5874 5872 5864 5869 5867 5873 5872 5869 5869 5865 5860 5861 5858 5859 5860 5857 5856 5854 5850 5850 5846 5843 5840 5837 5833 5829 5825 5820 5816 5810
5833 5839 5843 5846 5852 5856 5859 5864 5868 5870 5870 5871 5872 5877 5870 5858 5859 5861 5859 5864 5863 5863 5860 5856 5856 5852 5850 5850 5851 5850 5848 5846 5844 5841 5837 5834 5831 5828 5824 5819 5815 5810 5804 5799
5825 5830 5833 5838 5844 5845 5852 5858 5862 5862 5862 5864 5863 5862 5853 5856 5854 5856 5856 5854 5859 5854 5850 5849 5847 5845 5842 5843 5843 5842 5841 5839 5836 5833 5828 5826 5823 5819 5814 5809 5804 5800 5795 5789
5809 5818 5823 5827 5832 5840 5844 5849 5847 5841 5845 5857 5854 5853 5850 5839 5843 5849 5847 5847 5847 5844 5842 5841 5840 5838 5835 5836 5835 5834 5832 5830 5828 5824 5821 5818 5813 5809 5805 5800 5795 5790 5785 5777
5807 5799 5798 5807 5824 5827 5836 5838 5833 5830 5834 5838 5840 5839 5839 5835 5835 5836 5840 5838 5835 5834 5834 5833 5832 5830 5828 5827 5826 5825 5823 5822 5819 5814 5812 5808 5803 5799 5795 5790 5784 5779 5774 5767
5804 5799 5805 5809 5813 5818 5826 5822 5818 5817 5826 5827 5827 5824 5822 5824 5827 5831 5825 5824 5825 5825 5824 5824 5823 5821 5821 5818 5819 5816 5813 5811 5807 5804 5801 5797 5793 5789 5785 5779 5773 5768 5763 5759
5795 5794 5797 5799 5805 5810 5815 5806 5801 5804 5811 5814 5814 5816 5816 5815 5817 5819 5821 5815 5811 5815 5815 5815 5814 5813 5811 5809 5806 5806 5803 5799 5796 5793 5789 5785 5782 5778 5772 5768 5763 5757 5752 5747
5785 5783 5786 5779 5791 5788 5799 5798 5792 5794 5797 5800 5805 5808 5808 5810 5811 5812 5814 5813 5803 5802 5805 5804 5803 5802 5801 5798 5794 5792 5790 5787 5784 5781 5777 5774 5770 5767 5762 5756 5752 5748 5742 5736
5768 5771 5772 5775 5778 5777 5764 5777 5792 5794 5796 5797 5797 5798 5800 5801 5803 5803 5803 5802 5796 5795 5795 5796 5793 5792 5790 5785 5782 5781 5773 5773 5771 5770 5768 5763 5760 5755 5751 5747 5740 5735 5731 5726
5754 5762 5764 5769 5771 5765 5761 5776 5781 5783 5784 5785 5788 5790 5790 5791 5790 5791 5791 5787 5787 5787 5785 5784 5782 5781 5782 5760 5767 5771 5734 5753 5755 5754 5756 5752 5748 5744 5741 5740 5718 5714 5721 5717
5754 5754 5745 5749 5760 5752 5752 5763 5767 5771 5773 5775 5778 5779 5779 5778 5778 5778 5776 5775 5775 5775 5773 5773 5772 5774 5774 5759 5743 5751 5750 5749 5745 5743 5742 5738 5736 5731 5726 5728 5726 5717 5711 5707